[[{"header":{"parameterUnit":"m.s-1","parameterCategory":1,"la1":30.2991,"la2":30.254,"lo1":-89.0895,"lo2":-89.0444,"dy":0.0017,"dx":0.0017,"nx":28,"ny":28,"refTime":"2026-02-04T03:00:00:Z","depth":0,"parameterNumber":2,"parameterNumberName":"U-component_of_WINDS"},"data":[0,0,0,0,0,0,0,0,0,0,0,0,0,0,0,0,0,0,0,0,0,0,0,0,0,0,0,0,0,0,0,0,0,0,0,0,0,0,0,0,0,0,0,0,0,0,0,0,0,0,0,0,0,0,0,0,0,0,3.6341,3.6341,0,3.6373,3.6373,3.6374,3.6338,3.6336,3.6335,3.6334,3.6366,3.6368,3.637,0,0,0,0,0,0,0,0,0,0,0,0,0,3.625,3.6252,3.6341,3.6341,3.6342,3.6373,3.6373,3.6374,3.6338,3.6336,3.6335,3.6333,3.6365,3.6367,3.637,0,0,0,0,0,0,0,0,0,0,0,0,0,3.6286,3.6252,3.6341,3.6328,3.6327,3.6373,3.6373,3.6374,3.6338,3.6336,3.6334,3.6332,3.6364,3.6367,3.637,3.6431,0,0,3.638,3.6381,0,0,0,0,0,0,0,0,3.6284,3.629,3.6329,3.6329,3.6328,3.6349,3.6353,3.6393,3.6339,3.6334,3.6334,3.6331,3.6362,3.6365,3.6376,3.6432,3.6434,3.638,3.6382,3.6384,3.6385,0,0,0,0,0,0,0,3.6282,3.6288,3.6354,3.633,3.6329,3.632,3.6323,3.636,3.6359,3.6334,3.6332,3.6336,3.6361,3.6373,3.6376,3.6434,3.638,3.6383,3.6385,3.6386,3.6545,3.6547,0,0,0,0,0,0,3.6281,3.6286,3.6353,3.6355,3.6301,3.6324,3.6327,3.6344,3.6358,3.6359,3.6338,3.6334,3.6368,3.6372,3.6377,3.645,3.6384,3.6387,3.6388,3.6543,3.6545,3.6548,0,0,0,0,0,0,3.6279,3.6287,3.6351,3.632,3.6327,3.6327,3.6347,3.6346,3.6358,3.6361,3.6361,3.635,3.6367,3.6373,3.6418,3.6451,3.6388,3.6391,3.654,3.6543,3.6547,3.6596,0,0,0,0,0,0,3.6276,3.6287,3.6309,3.6321,3.6329,3.6392,3.6349,3.6348,3.6363,3.6359,3.6372,3.6372,3.6366,3.6414,3.6422,3.6454,3.6393,3.6537,3.6541,3.6545,3.6592,3.6601,3.6609,0,0,0,0,0,3.6273,3.6321,3.631,3.6319,3.6357,3.6394,3.6399,3.639,3.6366,3.6389,3.6392,3.6372,3.6446,3.6419,3.6427,3.6461,3.6535,3.654,3.6545,3.6588,3.6599,3.6609,0,0,0,0,0,0,3.6312,3.6322,3.631,3.6363,3.6378,3.6388,3.6416,3.6402,3.6423,3.6419,3.6407,3.641,3.6459,3.6465,3.6434,3.6522,3.6487,3.6494,3.6516,3.6527,3.6535,3.6533,3.6396,0,0,0,0,0,3.6327,3.6356,3.6363,3.6409,3.6417,3.6416,3.6431,3.6424,3.6438,3.6444,3.645,3.6465,3.6492,3.651,3.6534,3.6593,3.6596,3.662,3.6629,3.6636,3.6642,3.6676,3.6687,3.6565,3.6565,3.6565,0,0,3.6358,3.6367,3.6386,3.6417,3.6428,3.6459,3.6421,3.6454,3.6477,3.6449,3.6493,3.6498,3.6514,3.6568,3.6591,3.6573,3.6677,3.6643,3.6648,3.6651,3.6682,3.6694,3.6704,3.6568,3.6568,3.6567,0,0,3.643,3.6439,3.6479,3.6491,3.6508,3.6508,3.6517,3.653,3.6532,3.6577,3.6557,3.6584,3.663,3.6643,3.6656,3.6736,3.6719,3.6744,3.6789,3.6822,3.6832,3.684,3.687,3.6881,3.6751,3.6751,3.6751,0,3.6466,3.6511,3.6502,3.6538,3.6553,3.653,3.6572,3.6583,3.6607,3.6619,3.6599,3.6658,3.6667,3.6724,3.6744,3.6754,3.6766,3.6743,3.6831,3.6839,3.6847,3.6876,3.6887,3.6754,3.6753,3.6753,3.6753,0,3.6555,3.6587,3.6618,3.6643,3.6662,3.67,3.6698,3.6718,3.6709,3.6711,3.6757,3.6768,3.6795,3.6808,3.68,3.6865,3.6854,3.6833,3.6797,3.6862,3.6889,3.6899,3.6758,3.6757,3.6756,3.6755,0,0,3.6651,3.6673,3.6684,3.6696,3.6715,3.6739,3.6778,3.6805,3.6824,3.6842,3.6874,3.6915,3.6897,3.6911,3.6904,3.6933,3.6998,3.6908,3.6909,3.6926,3.7072,3.7088,3.7101,3.6987,3.6989,3.699,3.7071,0,3.6724,3.6791,3.6785,3.6848,3.6879,3.6859,3.6892,3.6908,3.6911,3.6937,3.694,3.697,3.6943,3.6952,3.6979,3.6984,3.7027,3.6978,3.7018,3.7019,3.7015,3.7114,3.7131,3.7206,3.7081,3.7083,3.7084,0,3.6818,3.6841,3.6908,3.6924,3.6936,3.6967,3.6993,3.7018,3.7036,3.7036,3.7054,3.7043,3.7082,3.7047,3.7102,3.7069,3.7085,3.709,3.7092,3.7096,3.7056,3.7121,3.723,3.7241,3.71,3.7099,3.7098,0,3.6883,3.693,3.6977,3.6988,3.7007,3.703,3.7039,3.7054,3.7072,3.7095,3.7107,3.7134,3.7149,3.7171,3.7168,3.7142,3.7225,3.7188,3.7227,3.7227,3.7245,3.7244,3.7358,3.7255,3.7255,3.7254,3.7254,0,3.6966,3.7008,3.7007,3.7035,3.7082,3.7076,3.7123,3.7129,3.7144,3.7174,3.7158,3.7187,3.7181,3.721,3.7208,3.7255,3.7261,3.7264,3.7263,3.7265,3.7265,3.7276,3.7271,3.7257,3.7257,3.7256,3.7256,0,3.7046,3.7047,3.7097,3.7112,3.7117,3.7151,3.7164,3.7192,3.7194,3.7233,3.7242,3.7246,3.728,3.7279,3.7316,3.7315,3.7373,3.7366,3.7368,3.7366,3.7406,3.7403,3.7531,3.7548,3.7433,3.7434,3.7435,0,3.7099,3.7131,3.715,3.717,3.7181,3.7212,3.7231,3.7226,3.7247,3.7271,3.7296,3.7328,3.7354,3.7409,3.7415,3.7445,3.7438,3.7482,3.7443,3.7445,3.744,3.7439,3.7443,3.7489,3.749,3.7492,3.7492,0,3.7193,3.7193,3.7221,3.725,3.7273,3.7295,3.7315,3.7332,3.733,3.7354,3.7389,3.7409,3.7449,3.7481,3.751,3.752,3.7507,3.7505,3.7516,3.7519,3.7519,3.7521,3.7389,3.7502,3.7501,3.75,3.75,3.7499,3.7262,3.7291,3.7309,3.7342,3.7357,3.7377,3.7404,3.7411,3.744,3.7473,3.7468,3.7508,3.7527,3.7564,3.7577,3.7608,3.7593,3.7608,3.7612,3.7616,3.7621,3.7514,3.7613,3.7613,3.7612,3.7612,3.7612,0,3.7357,3.7369,3.7398,3.7428,3.7454,3.744,3.7463,3.7485,3.752,3.7539,3.7565,3.7606,3.7639,3.7649,3.768,3.7703,3.7698,3.7712,3.771,3.7713,3.7632,3.762,3.7716,3.7716,3.7716,3.7716,3.7716,3.7716,3.7409,3.7457,3.7459,3.7516,3.7527,3.7566,3.758,3.7599,3.7614,3.7661,3.7688,3.7695,3.7711,3.7744,3.7774,3.7776,3.7789,3.7805,3.7805,3.7729,3.7719,3.7709,3.7698,3.7808,3.7808,3.7884,3.7885,3.7885]},{"header":{"parameterUnit":"m.s-1","parameterCategory":1,"la1":30.2991,"la2":30.254,"lo1":-89.0895,"lo2":-89.0444,"dy":0.0017,"dx":0.0017,"nx":28,"ny":28,"refTime":"2026-02-04T03:00:00:Z","depth":0,"parameterNumber":3,"parameterNumberName":"V-component_of_WINDS"},"data":[0,0,0,0,0,0,0,0,0,0,0,0,0,0,0,0,0,0,0,0,0,0,0,0,0,0,0,0,0,0,0,0,0,0,0,0,0,0,0,0,0,0,0,0,0,0,0,0,0,0,0,0,0,0,0,0,0,0,-5.6059,-5.606,0,-5.6166,-5.6167,-5.6169,-5.6162,-5.6161,-5.6159,-5.6158,-5.6263,-5.6267,-5.6271,0,0,0,0,0,0,0,0,0,0,0,0,0,-5.5845,-5.5849,-5.6059,-5.606,-5.6061,-5.6166,-5.6168,-5.6169,-5.6163,-5.6161,-5.6159,-5.6157,-5.6261,-5.6266,-5.6271,0,0,0,0,0,0,0,0,0,0,0,0,0,-5.5944,-5.585,-5.6058,-5.6071,-5.6073,-5.6166,-5.6168,-5.6169,-5.6163,-5.6161,-5.6158,-5.6156,-5.626,-5.6266,-5.6272,-5.6358,0,0,-5.6291,-5.6294,0,0,0,0,0,0,0,0,-5.5938,-5.5951,-5.6068,-5.607,-5.6073,-5.6149,-5.6131,-5.6232,-5.6164,-5.6129,-5.6158,-5.6155,-5.6226,-5.6235,-5.626,-5.6363,-5.6367,-5.6292,-5.6296,-5.6299,-5.63,0,0,0,0,0,0,0,-5.5931,-5.5947,-5.6101,-5.6069,-5.6073,-5.607,-5.6082,-5.615,-5.6189,-5.6132,-5.6131,-5.6144,-5.6227,-5.6254,-5.6263,-5.6369,-5.6292,-5.6297,-5.6301,-5.6304,-5.6549,-5.6552,0,0,0,0,0,0,-5.5922,-5.5941,-5.6098,-5.6104,-5.5999,-5.6076,-5.6089,-5.6127,-5.6188,-5.6196,-5.6146,-5.6144,-5.6244,-5.6255,-5.6266,-5.6373,-5.6298,-5.6304,-5.6308,-5.6547,-5.655,-5.6553,0,0,0,0,0,0,-5.5918,-5.5936,-5.6093,-5.6023,-5.6043,-5.6082,-5.6125,-5.613,-5.6157,-5.62,-5.6206,-5.6167,-5.6243,-5.6257,-5.6336,-5.6376,-5.6307,-5.6313,-5.6543,-5.6548,-5.6551,-5.6585,0,0,0,0,0,0,-5.5912,-5.5935,-5.5968,-5.6024,-5.6047,-5.6162,-5.6127,-5.6134,-5.6169,-5.6166,-5.6221,-5.6227,-5.6242,-5.6327,-5.6342,-5.6384,-5.6318,-5.654,-5.6545,-5.655,-5.658,-5.6589,-5.6597,0,0,0,0,0,-5.5904,-5.5971,-5.597,-5.5989,-5.6089,-5.6164,-5.6177,-5.6195,-5.6172,-5.6206,-5.6233,-5.6226,-5.6369,-5.6335,-5.6352,-5.6396,-5.6538,-5.6544,-5.655,-5.6576,-5.6587,-5.6597,0,0,0,0,0,0,-5.5916,-5.5979,-5.5978,-5.6065,-5.611,-5.6163,-5.6206,-5.6206,-5.6256,-5.6252,-5.627,-5.6282,-5.6361,-5.6386,-5.6347,-5.6484,-5.645,-5.646,-5.6464,-5.6475,-5.6484,-5.6476,-5.6323,0,0,0,0,0,-5.593,-5.5987,-5.6038,-5.611,-5.6133,-5.6166,-5.6199,-5.6209,-5.6255,-5.6274,-5.6307,-5.6351,-5.6406,-5.6442,-5.6495,-5.6584,-5.6596,-5.6623,-5.6631,-5.6638,-5.6646,-5.6698,-5.671,-5.6573,-5.6573,-5.6573,0,0,-5.5957,-5.5998,-5.6033,-5.6114,-5.6149,-5.6208,-5.6181,-5.6243,-5.6287,-5.6282,-5.636,-5.6386,-5.6436,-5.6521,-5.656,-5.6545,-5.6688,-5.6646,-5.6651,-5.6656,-5.6705,-5.6718,-5.673,-5.6577,-5.6576,-5.6576,0,0,-5.6037,-5.6074,-5.6139,-5.6177,-5.6232,-5.6255,-5.627,-5.6325,-5.6343,-5.6422,-5.642,-5.6471,-5.6566,-5.6603,-5.6634,-5.6732,-5.6727,-5.6748,-5.6793,-5.6842,-5.6853,-5.6863,-5.6899,-5.6912,-5.6756,-5.6756,-5.6757,0,-5.6063,-5.6153,-5.6172,-5.6236,-5.6273,-5.6274,-5.6341,-5.6376,-5.6445,-5.647,-5.6452,-5.6573,-5.6606,-5.6701,-5.6725,-5.675,-5.6769,-5.6742,-5.685,-5.686,-5.6869,-5.6904,-5.6918,-5.6759,-5.6759,-5.6758,-5.6758,0,-5.6183,-5.6245,-5.6291,-5.6362,-5.6403,-5.6468,-5.6497,-5.6536,-5.6544,-5.6568,-5.6648,-5.669,-5.6752,-5.6776,-5.6781,-5.6872,-5.6861,-5.6846,-5.6813,-5.6885,-5.6918,-5.6931,-5.6762,-5.6761,-5.6761,-5.676,0,0,-5.6272,-5.6355,-5.6372,-5.6405,-5.6468,-5.6516,-5.6581,-5.6645,-5.6679,-5.6728,-5.6783,-5.6865,-5.6853,-5.6889,-5.6899,-5.6943,-5.702,-5.6923,-5.6925,-5.6941,-5.7124,-5.7135,-5.715,-5.7018,-5.702,-5.7022,-5.712,0,-5.6359,-5.6477,-5.6499,-5.6601,-5.666,-5.6664,-5.6721,-5.6766,-5.6791,-5.6843,-5.6869,-5.6928,-5.6907,-5.6929,-5.6972,-5.7001,-5.7057,-5.6995,-5.7069,-5.7072,-5.7057,-5.7167,-5.7178,-5.7269,-5.7133,-5.7135,-5.7137,0,-5.6476,-5.6531,-5.6641,-5.6699,-5.6724,-5.6776,-5.6838,-5.6888,-5.6939,-5.6954,-5.6996,-5.7002,-5.707,-5.7035,-5.7129,-5.7086,-5.7118,-5.7138,-5.7142,-5.7149,-5.7109,-5.7179,-5.7298,-5.7312,-5.7157,-5.7155,-5.7154,0,-5.6532,-5.6633,-5.6712,-5.674,-5.681,-5.6846,-5.6877,-5.6926,-5.6964,-5.7018,-5.7043,-5.7102,-5.7135,-5.7181,-5.7204,-5.7176,-5.7297,-5.7263,-5.7312,-5.7311,-5.7337,-5.7335,-5.7464,-5.7357,-5.7356,-5.7356,-5.7356,0,-5.6627,-5.6694,-5.6739,-5.6788,-5.6863,-5.6887,-5.6961,-5.6991,-5.7035,-5.709,-5.7096,-5.7146,-5.7173,-5.7228,-5.7246,-5.7322,-5.7336,-5.735,-5.7355,-5.7351,-5.7349,-5.7372,-5.7366,-5.736,-5.7359,-5.7358,-5.7358,0,-5.6702,-5.6734,-5.6821,-5.6882,-5.6898,-5.6952,-5.7003,-5.705,-5.7076,-5.7145,-5.7163,-5.7203,-5.7268,-5.7295,-5.7374,-5.7386,-5.7475,-5.7473,-5.7458,-5.7459,-5.7507,-5.7503,-5.7655,-5.7677,-5.7555,-5.7556,-5.7557,0,-5.6761,-5.6813,-5.6881,-5.6919,-5.6951,-5.7012,-5.7052,-5.7078,-5.7119,-5.7184,-5.7224,-5.7289,-5.7343,-5.7447,-5.7482,-5.7543,-5.7544,-5.7594,-5.7553,-5.7548,-5.7546,-5.7543,-5.7549,-5.7601,-5.7602,-5.7603,-5.7604,0,-5.6863,-5.6877,-5.6936,-5.7001,-5.7049,-5.7101,-5.7151,-5.7182,-5.7216,-5.7262,-5.733,-5.7372,-5.7455,-5.752,-5.7584,-5.7614,-5.7615,-5.7617,-5.7631,-5.7628,-5.7618,-5.7625,-5.7479,-5.7613,-5.7612,-5.7611,-5.7611,-5.761,-5.6932,-5.698,-5.7036,-5.7102,-5.7143,-5.7191,-5.724,-5.7273,-5.7331,-5.7402,-5.7414,-5.7487,-5.7539,-5.7625,-5.7659,-5.7716,-5.7703,-5.7724,-5.7729,-5.7734,-5.7738,-5.7609,-5.7727,-5.7727,-5.7727,-5.7726,-5.7726,0,-5.7036,-5.7073,-5.7133,-5.7206,-5.7258,-5.7257,-5.7313,-5.7356,-5.7421,-5.7471,-5.7525,-5.7605,-5.7669,-5.7711,-5.7776,-5.7814,-5.7816,-5.783,-5.7827,-5.7835,-5.7745,-5.7727,-5.7827,-5.7827,-5.7827,-5.7827,-5.7827,-5.7827,-5.7096,-5.7178,-5.7199,-5.7302,-5.7338,-5.7412,-5.7445,-5.7489,-5.7529,-5.7619,-5.7673,-5.7701,-5.7748,-5.7817,-5.7876,-5.7887,-5.7911,-5.7926,-5.7936,-5.7851,-5.7841,-5.7831,-5.7813,-5.7931,-5.7931,-5.8021,-5.8022,-5.8022]}]]